AirNav   ProFlight Series 2 Aviation Headset
 
 1060 users online  

KPYP Centre-Piedmont-Cherokee County Regional Airport
Centre, Alabama, USA

GOING TO CENTRE?


FAA INFORMATION EFFECTIVE 08 OCTOBER 2020

Location

FAA Identifier: PYP
Lat/Long: 34-05-23.7000N 085-36-36.3000W
34-05.395000N 085-36.605000W
34.0899167,-85.6100833
(estimated)
Elevation: 594.6 ft. / 181 m (estimated)
Variation: 04W (2010)
From city: 5 miles S of CENTRE, AL
Time zone: UTC -5 (UTC -6 during Standard Time)
Zip code: 35960

Airport Operations

Airport use: Open to the public
Activation date: 09/2007
Control tower: no
ARTCC: ATLANTA CENTER
FSS: ANNISTON FLIGHT SERVICE STATION
NOTAMs facility: ANB (NOTAM-D service available)
Attendance: UNATNDD
Wind indicator: lighted
Segmented circle: yes
Lights: ACTVT MIRL RY 07/25 - CTAF.
Beacon: white-green (lighted land airport)
Operates sunset to sunrise.

Airport Communications

CTAF: 122.9
  • APCH/DEP SVC PRVDD BY ATLANTA ARTCC ON FREQS 124.5/270.325 (GADSDEN RCAG).

Nearby radio navigation aids

VOR radial/distance  VOR name  Freq  Var
GADr072/24.5GADSDEN VOR/DME112.3002E
RMGr259/24.8ROME VORTAC115.4001E

 
NDB name  Hdg/Dist  Freq  Var  ID
FORT PAYNE177/26.142604WFTP ..-. - .--.
CARROLLTON327/39.527804WGPQ --. .--. --.-

Airport Services

Fuel available: 100LL
Parking: tiedowns

Runway Information

Runway 7/25

Dimensions: 5500 x 100 ft. / 1676 x 30 m
Surface: asphalt/aggregate friction seal coat, in good condition
Runway edge lights: medium intensity
RUNWAY 7  RUNWAY 25
Latitude: 34-05.189240N34-05.601052N
Longitude: 085-37.089855W085-36.118890W
Elevation: 584.4 ft.594.6 ft.
Traffic pattern: leftleft
Runway heading: 067 magnetic, 063 true247 magnetic, 243 true
Markings: nonprecision, in good conditionnonprecision, in good condition
Touchdown point: yes, no lightsyes, no lights
Obstructions: 65 ft. trees, 2929 ft. from runway, 261 ft. left of centerline, 41:1 slope to clearnone

Airport Ownership and Management from official FAA records

Ownership: Publicly-owned
Owner: CPCCR AIRPORT AUTHORITY
P.O. BOX 466
CENTRE, AL 35960
Phone (256) 927-8008
Manager: DONNIE FREE
P.O. 466
CENTRE, AL 35960
Phone (256) 557-0404

Airport Operational Statistics

Aircraft based on the field: 19
Single engine airplanes: 18
Multi engine airplanes: 1
    
Aircraft operations: avg 44/day *
51% transient general aviation
49% local general aviation
* for 12-month period ending 31 March 2019

Additional Remarks

FOR CD CTC ATLANTA ARTCC AT 770-210-7692.

Instrument Procedures

NOTE: All procedures below are presented as PDF files. If you need a reader for these files, you should download the free Adobe Reader.

NOT FOR NAVIGATION. Please procure official charts for flight.
FAA instrument procedures published for use from 08 October 2020 at 0901Z to 05 November 2020 at 0900Z.

 
IAPs - Instrument Approach Procedures
RNAV (GPS) RWY 07   download (240KB)
RNAV (GPS) RWY 25   download (216KB)
NOTE: Special Take-Off Minimums/Departure Procedures apply   download (189KB)

Other nearby airports with instrument procedures:

4A4 - Polk County Airport - Cornelius Moore Field (23 nm E)
4A9 - Isbell Field Airport (24 nm N)
KGAD - Northeast Alabama Regional Airport (25 nm W)
KRMG - Richard B. Russell Regional Airport - J.H. Towers Field (27 nm NE)
KANB - Anniston Regional Airport (33 nm S)
 
Loc | Ops | Rwys | IFR | FBO | Links
Com | Nav | Svcs | Stats | Notes
Area around KPYP (Centre-Piedmont-Cherokee County Regional Airport)
 
Road maps at: MapQuest Bing Google
 
Aerial photo
WARNING: Photo may not be current or correct
Aerial photo of KPYP (Centre-Piedmont-Cherokee County Regional Airport)
Photo by Harley McGatha
Photo taken 10-Nov-2007
from a PA24-260B Comanche

Do you have a better or more recent aerial photo of Centre-Piedmont-Cherokee County Regional Airport that you would like to share? If so, please send us your photo.

 
Sectional chart

 
Airport distance calculator
Flying to Centre-Piedmont-Cherokee County Regional Airport? Find the distance to fly.

From to KPYP

Sunrise and sunset
Times for 31-Oct-2020
 Local
(UTC-5)
 Zulu
(UTC)
Morning civil twilight06:3711:37
Sunrise07:0312:03
Sunset17:4922:49
Evening civil twilight18:1523:15

Current date and time
Zulu (UTC)  31-Oct-2020 18:34:53
Local (UTC-5)  31-Oct-2020 13:34:53
 
METAR
K4A9 
24nm N 
311815Z AUTO 14007KT 10SM CLR 17/06 A3029 RMK AO2 T01690057
KGAD 
24nm W 
311756Z AUTO 05005KT 10SM CLR 18/08 A3029 RMK AO2 SLP263 6//// T01830083 10183 20044 58022 PNO $
KRMG 
27nm NE 
311753Z AUTO 10010G15KT 10SM CLR 18/05 A3031 RMK AO2 SLP261 T01780050 10178 20044 58021
KANB 
33nm S 
311753Z AUTO 09008KT 10SM CLR 19/08 A3028 RMK AO2 SLP255 T01940078 10200 20072 58019
K8A0 
33nm W 
311815Z AUTO 10006KT 10SM CLR 16/07 A3028 RMK AO2
KPUJ 
35nm E 
311817Z AUTO 11007KT 5SM HZ CLR 17/06 A3030 RMK AO2
KCTJ 
36nm SE 
311815Z AUTO 13006KT 10SM CLR 17/06 A3033 RMK AO2 T01680055
KVPC 
38nm E 
311753Z AUTO 06008KT 10SM CLR 18/05 A3033 RMK AO2 SLP263 T01780050 10178 20044 58021
KASN 
38nm SW 
311815Z AUTO 11006KT 4SM HZ SCT042 20/08 A3028 RMK AO2 T02040080
K9A5 
39nm NE 
311815Z AUTO 13006KT 7SM CLR 17/05 A3031 RMK AO2 T01700048
TAF
KANB 
33nm S 
311731Z 3118/0118 09006KT P6SM SCT035 SCT250 FM010000 13005KT P6SM BKN250 FM010800 00000KT P6SM OVC015
KASN 
38nm SW 
311731Z 3118/0118 09006KT P6SM SCT035 SCT250 FM010000 13005KT P6SM BKN250 FM010800 00000KT P6SM OVC015
NOTAMs
Click for the latest NOTAMs
NOTAMs are issued by the DoD/FAA and will open in a separate window not controlled by AirNav.

 

 
 

FBO, Fuel Providers, and Aircraft Ground Support

  
 Business Name 
 
 Contact 
 
 Services / Description 
 
Fuel Prices
 
Comments
  
Centre-Piedmont-Cherokee County Regional Airport 256-927-8009
[email]
Airport management, Aviation fuel, Aircraft parking (ramp or tiedown), Hangar leasing / sales, Passenger terminal and lounge, Aircraft maintenance, ...

More info about Centre-Piedmont-Cherokee County Regional Airport
Phillips 66
100LL
SS $3.90 
 Updated 29-Sep-2020
 
   write
SS=Self service
Update Fuel Prices
 

Would you like to see your business listed on this page?

 If your business provides an interesting product or service to pilots, flight crews, aircraft, or users of the Centre-Piedmont-Cherokee County Regional Airport, you should consider listing it here.  To start the listing process, click on the button below
 
Add a business
 

Other Pages about Centre-Piedmont-Cherokee County Regional Airport

Update a link
 
Copyright © AirNav, LLC. All rights reserved. Privacy Policy  Contact